EZY29PW EHAM-EGKK

Flight info

Callsign EZY29PW
Flight time 0h 46m
Altitude 24000
Route IDRID L980 ABNED Z344 AMRIV Q63 ARREK Y4 TEBRA
Aircraft A320/M-SDE3FGHIRWY/LB1

Departure

Time 2026-05-07 22:05
Airport Amsterdam Airport Schiphol (EHAM)

Arrival

Time 2026-05-07 22:52
Airport London Gatwick Airport (EGKK)
Time Latitude Longitude Altitude Speed Heading
2026-05-07 21:46 52.31050 4.75514 -1 ft 0 kts 148°
2026-05-07 21:53 52.31055 4.75508 -1 ft 2 kts 148°
2026-05-07 21:53 52.31070 4.75494 -1 ft 2 kts 147°
2026-05-07 21:53 52.31080 4.75473 -1 ft 2 kts 113°
2026-05-07 21:54 52.31084 4.75447 -1 ft 2 kts 66°
2026-05-07 21:54 52.31083 4.75444 -1 ft 0 kts 60°
2026-05-07 21:56 52.31094 4.75467 -1 ft 6 kts 45°
2026-05-07 21:56 52.31140 4.75468 -1 ft 10 kts 358°
2026-05-07 21:56 52.31231 4.75460 -1 ft 15 kts 356°
2026-05-07 21:57 52.31340 4.75448 -1 ft 17 kts 358°
2026-05-07 21:57 52.31442 4.75441 -1 ft 10 kts 357°
2026-05-07 21:57 52.31501 4.75395 -1 ft 10 kts 301°
2026-05-07 21:57 52.31508 4.75264 -1 ft 16 kts 269°
2026-05-07 21:58 52.31499 4.75036 -1 ft 23 kts 267°
2026-05-07 21:58 52.31489 4.74764 -1 ft 21 kts 265°
2026-05-07 21:58 52.31522 4.74665 -1 ft 5 kts 291°
2026-05-07 21:58 52.31489 4.74535 -1 ft 21 kts 251°
2026-05-07 21:59 52.31478 4.74335 -1 ft 11 kts 287°
2026-05-07 21:59 52.31539 4.74297 -1 ft 12 kts
2026-05-07 21:59 52.31658 4.74310 -1 ft 21 kts
2026-05-07 21:59 52.31816 4.74324 -1 ft 24 kts
2026-05-07 22:00 52.31972 4.74337 -1 ft 13 kts
2026-05-07 22:00 52.32031 4.74247 -1 ft 13 kts 280°
2026-05-07 22:00 52.32032 4.74106 -1 ft 12 kts 270°
2026-05-07 22:00 52.32037 4.73973 -2 ft 12 kts 275°
2026-05-07 22:01 52.32045 4.73831 -1 ft 18 kts 273°
2026-05-07 22:01 52.32054 4.73558 -1 ft 28 kts 272°
2026-05-07 22:01 52.32098 4.73340 -1 ft 15 kts 317°
2026-05-07 22:01 52.32209 4.73185 -1 ft 31 kts 320°
2026-05-07 22:02 52.32395 4.72931 -1 ft 36 kts 319°
2026-05-07 22:02 52.32582 4.72664 -1 ft 36 kts 319°
2026-05-07 22:02 52.32759 4.72378 -1 ft 36 kts 310°
2026-05-07 22:02 52.32924 4.72065 -1 ft 36 kts 311°
2026-05-07 22:03 52.33092 4.71758 -1 ft 29 kts 311°
2026-05-07 22:03 52.33146 4.71573 -1 ft 18 kts 265°
2026-05-07 22:03 52.33070 4.71410 -1 ft 22 kts 221°
2026-05-07 22:03 52.32956 4.71246 -1 ft 22 kts 221°
2026-05-07 22:04 52.32863 4.71067 -1 ft 19 kts 261°
2026-05-07 22:04 52.32882 4.70907 -2 ft 11 kts 316°
2026-05-07 22:04 52.32997 4.70905 -3 ft 25 kts
2026-05-07 22:04 52.33420 4.70947 -2 ft 96 kts
2026-05-07 22:05 52.34294 4.71023 -3 ft 153 kts
2026-05-07 22:05 52.35452 4.71127 379 ft 171 kts
2026-05-07 22:05 52.36670 4.71228 1062 ft 179 kts
2026-05-07 22:05 52.37950 4.71369 1652 ft 193 kts
2026-05-07 22:06 52.39413 4.71544 1973 ft 225 kts
2026-05-07 22:06 52.41077 4.71734 2434 ft 252 kts
2026-05-07 22:06 52.42132 4.71833 2842 ft 262 kts
2026-05-07 22:07 52.43391 4.71931 3389 ft 270 kts
2026-05-07 22:07 52.45294 4.72044 4305 ft 278 kts
2026-05-07 22:07 52.47231 4.72175 5357 ft 279 kts
2026-05-07 22:07 52.49166 4.72367 6456 ft 278 kts
2026-05-07 22:08 52.51056 4.72589 7505 ft 276 kts
2026-05-07 22:08 52.52993 4.72807 8113 ft 286 kts
2026-05-07 22:08 52.55004 4.73028 8884 ft 292 kts
2026-05-07 22:08 52.57029 4.72739 9966 ft 295 kts 338°
2026-05-07 22:09 52.58750 4.70831 10510 ft 310 kts 309°
2026-05-07 22:09 52.59744 4.67611 10846 ft 328 kts 281°
2026-05-07 22:09 52.59693 4.63855 11522 ft 334 kts 259°
2026-05-07 22:09 52.59012 4.60191 12052 ft 337 kts 244°
2026-05-07 22:10 52.58246 4.57975 12643 ft 338 kts 236°
2026-05-07 22:10 52.56700 4.55053 13481 ft 340 kts 225°
2026-05-07 22:10 52.55111 4.52502 14212 ft 343 kts 224°
2026-05-07 22:11 52.53875 4.50560 14730 ft 345 kts 224°
2026-05-07 22:11 52.52123 4.47839 15422 ft 349 kts 224°
2026-05-07 22:11 52.50350 4.45096 16096 ft 353 kts 224°
2026-05-07 22:11 52.48557 4.42311 16815 ft 356 kts 224°
2026-05-07 22:12 52.46759 4.39509 17535 ft 358 kts 224°
2026-05-07 22:12 52.44969 4.36716 18212 ft 362 kts 224°
2026-05-07 22:12 52.43133 4.33850 18791 ft 366 kts 224°
2026-05-07 22:12 52.41282 4.30962 19394 ft 369 kts 224°
2026-05-07 22:13 52.39420 4.28057 20000 ft 371 kts 224°
2026-05-07 22:13 52.37514 4.25087 20130 ft 374 kts 223°
2026-05-07 22:13 52.35617 4.22139 21067 ft 378 kts 224°
2026-05-07 22:13 52.33811 4.19341 21626 ft 380 kts 224°
2026-05-07 22:14 52.31807 4.16218 21713 ft 382 kts 225°
2026-05-07 22:14 52.30111 4.12920 22623 ft 386 kts 233°
2026-05-07 22:14 52.28453 4.09385 23142 ft 388 kts 232°
2026-05-07 22:14 52.26798 4.05890 23732 ft 389 kts 232°
2026-05-07 22:15 52.25131 4.02396 24034 ft 391 kts 232°
2026-05-07 22:15 52.23462 3.98915 24102 ft 386 kts 232°
2026-05-07 22:15 52.21815 3.95492 24115 ft 382 kts 232°
2026-05-07 22:15 52.20183 3.92104 24115 ft 380 kts 232°
2026-05-07 22:16 52.18553 3.88719 24111 ft 379 kts 232°
2026-05-07 22:16 52.16927 3.85341 24111 ft 379 kts 232°
2026-05-07 22:16 52.15302 3.81963 24112 ft 379 kts 232°
2026-05-07 22:16 52.13687 3.78609 24110 ft 379 kts 232°
2026-05-07 22:17 52.12052 3.75222 24111 ft 379 kts 232°
2026-05-07 22:17 52.10425 3.71856 24108 ft 379 kts 232°
2026-05-07 22:17 52.08793 3.68489 24108 ft 379 kts 232°
2026-05-07 22:17 52.07163 3.65126 24107 ft 378 kts 232°
2026-05-07 22:18 52.05534 3.61767 24105 ft 378 kts 232°
2026-05-07 22:18 52.02273 3.55066 24097 ft 378 kts 232°
2026-05-07 22:18 52.00641 3.51721 24099 ft 378 kts 232°
2026-05-07 22:19 51.99012 3.48369 24095 ft 378 kts 233°
2026-05-07 22:19 51.97430 3.44974 24096 ft 377 kts 234°
2026-05-07 22:19 51.95884 3.41538 24099 ft 377 kts 235°
2026-05-07 22:19 51.94455 3.37986 24098 ft 376 kts 244°
2026-05-07 22:20 51.93440 3.34081 24099 ft 376 kts 248°
2026-05-07 22:20 51.92461 3.30159 24108 ft 376 kts 248°
2026-05-07 22:20 51.91486 3.26233 24107 ft 376 kts 248°
2026-05-07 22:20 51.90527 3.22356 24107 ft 375 kts 248°
2026-05-07 22:21 51.89554 3.18434 24105 ft 375 kts 248°
2026-05-07 22:21 51.88578 3.14516 24104 ft 375 kts 248°
2026-05-07 22:21 51.87601 3.10601 24101 ft 375 kts 248°
2026-05-07 22:21 51.86617 3.06686 24100 ft 375 kts 248°
2026-05-07 22:22 51.85633 3.02780 24099 ft 375 kts 248°
2026-05-07 22:22 51.84651 2.98870 24098 ft 375 kts 248°
2026-05-07 22:22 51.83665 2.94964 24099 ft 375 kts 248°
2026-05-07 22:22 51.82674 2.91059 24108 ft 375 kts 248°
2026-05-07 22:23 51.81671 2.87103 24106 ft 375 kts 248°
2026-05-07 22:23 51.80683 2.83197 24104 ft 375 kts 248°
2026-05-07 22:23 51.79709 2.79353 24105 ft 375 kts 248°
2026-05-07 22:23 51.78716 2.75456 24104 ft 375 kts 248°
2026-05-07 22:24 51.77723 2.71566 24093 ft 375 kts 248°
2026-05-07 22:24 51.76731 2.67684 24093 ft 375 kts 248°
2026-05-07 22:24 51.75736 2.63795 24094 ft 374 kts 248°
2026-05-07 22:24 51.74747 2.59927 24123 ft 376 kts 248°
2026-05-07 22:25 51.73744 2.55997 24107 ft 379 kts 248°
2026-05-07 22:25 51.72739 2.52074 24094 ft 377 kts 248°
2026-05-07 22:25 51.71734 2.48161 24095 ft 377 kts 248°
2026-05-07 22:25 51.70729 2.44267 24095 ft 377 kts 247°
2026-05-07 22:26 51.69718 2.40372 24102 ft 377 kts 247°
2026-05-07 22:26 51.68708 2.36487 24092 ft 376 kts 247°
2026-05-07 22:26 51.67692 2.32590 24092 ft 376 kts 247°
2026-05-07 22:26 51.66682 2.28705 24089 ft 376 kts 247°
2026-05-07 22:27 51.65673 2.24810 24092 ft 376 kts 247°
2026-05-07 22:27 51.64665 2.20926 24091 ft 376 kts 247°
2026-05-07 22:27 51.63655 2.17037 24090 ft 376 kts 247°
2026-05-07 22:27 51.62655 2.13197 23743 ft 371 kts 247°
2026-05-07 22:28 51.61660 2.09384 23215 ft 366 kts 247°
2026-05-07 22:28 51.60679 2.05638 22753 ft 360 kts 247°
2026-05-07 22:28 51.59711 2.01954 22319 ft 356 kts 247°
2026-05-07 22:28 51.58754 1.98322 21874 ft 351 kts 247°
2026-05-07 22:29 51.57800 1.94718 21420 ft 348 kts 247°
2026-05-07 22:29 51.56860 1.91162 20977 ft 345 kts 246°
2026-05-07 22:29 51.55924 1.87628 20519 ft 342 kts 246°
2026-05-07 22:29 51.54995 1.84120 20071 ft 340 kts 247°
2026-05-07 22:30 51.54073 1.80641 19637 ft 338 kts 246°
2026-05-07 22:30 51.53155 1.77174 19188 ft 336 kts 247°
2026-05-07 22:30 51.52243 1.73731 18743 ft 335 kts 246°
2026-05-07 22:30 51.51327 1.70303 18303 ft 333 kts 246°
2026-05-07 22:31 51.50413 1.66891 17831 ft 331 kts 246°
2026-05-07 22:31 51.49508 1.63513 17382 ft 329 kts 246°
2026-05-07 22:31 51.48617 1.60142 16952 ft 327 kts 247°
2026-05-07 22:31 51.47795 1.56752 16518 ft 325 kts 249°
2026-05-07 22:32 51.47020 1.53351 16084 ft 324 kts 249°
2026-05-07 22:32 51.46261 1.49959 15669 ft 323 kts 249°
2026-05-07 22:32 51.45506 1.46584 15236 ft 322 kts 249°
2026-05-07 22:32 51.44746 1.43217 14815 ft 321 kts 249°
2026-05-07 22:33 51.43897 1.39917 14393 ft 320 kts 241°
2026-05-07 22:33 51.42649 1.36993 13984 ft 318 kts 227°
2026-05-07 22:33 51.41026 1.34624 13785 ft 317 kts 216°
2026-05-07 22:33 51.39250 1.32532 13559 ft 317 kts 216°
2026-05-07 22:34 51.37482 1.30436 13338 ft 316 kts 216°
2026-05-07 22:34 51.35720 1.28346 13117 ft 315 kts 217°
2026-05-07 22:34 51.33966 1.26265 12902 ft 314 kts 216°
2026-05-07 22:34 51.32209 1.24185 12670 ft 313 kts 217°
2026-05-07 22:35 51.30461 1.22123 12476 ft 312 kts 217°
2026-05-07 22:35 51.28715 1.20067 12239 ft 311 kts 217°
2026-05-07 22:35 51.26976 1.18015 12023 ft 311 kts 217°
2026-05-07 22:35 51.25240 1.15964 11812 ft 310 kts 217°
2026-05-07 22:36 51.23509 1.13926 11595 ft 309 kts 217°
2026-05-07 22:36 51.21781 1.11898 11386 ft 308 kts 217°
2026-05-07 22:36 51.20055 1.09878 11172 ft 307 kts 217°
2026-05-07 22:36 51.18334 1.07865 10949 ft 306 kts 217°
2026-05-07 22:37 51.16619 1.05861 10749 ft 305 kts 217°
2026-05-07 22:37 51.14911 1.03863 10536 ft 305 kts 217°
2026-05-07 22:37 51.13210 1.01875 10334 ft 300 kts 217°
2026-05-07 22:37 51.11562 0.99954 10206 ft 288 kts 217°
2026-05-07 22:38 51.09963 0.98088 10014 ft 281 kts 217°
2026-05-07 22:38 51.08389 0.96255 9903 ft 280 kts 217°
2026-05-07 22:38 51.06831 0.94401 9741 ft 279 kts 222°
2026-05-07 22:38 51.05534 0.92133 9504 ft 277 kts 236°
2026-05-07 22:39 51.04623 0.89453 9316 ft 276 kts 245°
2026-05-07 22:39 51.03808 0.86689 9122 ft 276 kts 245°
2026-05-07 22:39 51.02990 0.83936 8940 ft 276 kts 245°
2026-05-07 22:39 51.02170 0.81187 8724 ft 275 kts 245°
2026-05-07 22:40 51.01349 0.78447 8553 ft 275 kts 245°
2026-05-07 22:40 51.00526 0.75713 8362 ft 275 kts 244°
2026-05-07 22:40 50.99702 0.72977 8168 ft 274 kts 244°
2026-05-07 22:40 50.98881 0.70246 7986 ft 274 kts 244°
2026-05-07 22:41 50.98063 0.67522 7812 ft 273 kts 244°
2026-05-07 22:41 50.97236 0.64771 7598 ft 273 kts 245°
2026-05-07 22:41 50.96447 0.62032 7427 ft 271 kts 251°
2026-05-07 22:41 50.96233 0.59100 7036 ft 269 kts 278°
2026-05-07 22:42 50.96827 0.56312 6583 ft 269 kts 295°
2026-05-07 22:42 50.97632 0.53665 6119 ft 270 kts 296°
2026-05-07 22:42 50.98463 0.51003 5656 ft 270 kts 296°
2026-05-07 22:42 50.99299 0.48340 5200 ft 270 kts 296°
2026-05-07 22:43 51.00174 0.45707 4755 ft 269 kts 305°
2026-05-07 22:43 51.01465 0.43595 4395 ft 263 kts 320°
2026-05-07 22:43 51.02837 0.41774 4252 ft 251 kts 321°
2026-05-07 22:43 51.04155 0.40053 4107 ft 240 kts 321°
2026-05-07 22:44 51.05417 0.38405 3965 ft 230 kts 321°
2026-05-07 22:44 51.06631 0.36821 3794 ft 222 kts 321°
2026-05-07 22:44 51.07816 0.35273 3526 ft 220 kts 321°
2026-05-07 22:44 51.08993 0.33734 3235 ft 219 kts 321°
2026-05-07 22:45 51.10175 0.32185 2906 ft 219 kts 321°
2026-05-07 22:45 51.11367 0.30628 2593 ft 219 kts 321°
2026-05-07 22:45 51.12543 0.29098 2294 ft 219 kts 321°
2026-05-07 22:45 51.13722 0.27566 1995 ft 219 kts 321°
2026-05-07 22:46 51.14885 0.26018 1793 ft 216 kts 316°
2026-05-07 22:46 51.15913 0.24247 1785 ft 219 kts 311°
2026-05-07 22:46 51.16906 0.22402 1796 ft 220 kts 310°
2026-05-07 22:46 51.17897 0.20551 1808 ft 220 kts 310°
2026-05-07 22:47 51.18855 0.18614 1817 ft 220 kts 299°
2026-05-07 22:47 51.19360 0.16370 1832 ft 218 kts 276°
2026-05-07 22:47 51.19305 0.14011 1845 ft 216 kts 255°
2026-05-07 22:47 51.19088 0.12428 1854 ft 216 kts 255°
2026-05-07 22:48 51.18773 0.10081 1865 ft 217 kts 256°
2026-05-07 22:48 51.18457 0.07733 1876 ft 216 kts 256°
2026-05-07 22:48 51.18141 0.05387 1890 ft 217 kts 256°
2026-05-07 22:48 51.17823 0.03040 1902 ft 216 kts 256°
2026-05-07 22:49 51.17503 0.00673 1917 ft 212 kts 256°
2026-05-07 22:49 51.17201 -0.01555 2012 ft 200 kts 256°
2026-05-07 22:49 51.16909 -0.03700 1925 ft 197 kts 255°
2026-05-07 22:49 51.16620 -0.05828 1705 ft 195 kts 256°
2026-05-07 22:50 51.16335 -0.07916 1458 ft 187 kts 256°
2026-05-07 22:50 51.16076 -0.09818 1192 ft 169 kts 257°
2026-05-07 22:50 51.15834 -0.11587 973 ft 152 kts 257°
2026-05-07 22:50 51.15625 -0.13116 756 ft 143 kts 257°
2026-05-07 22:51 51.15408 -0.14700 538 ft 140 kts 257°
2026-05-07 22:51 51.15201 -0.16205 367 ft 139 kts 257°
2026-05-07 22:51 51.14995 -0.17695 233 ft 134 kts 258°
2026-05-07 22:51 51.14820 -0.18998 210 ft 99 kts 258°
2026-05-07 22:52 51.14716 -0.19752 207 ft 40 kts 259°
2026-05-07 22:52 51.14724 -0.20164 207 ft 37 kts 284°
2026-05-07 22:52 51.14775 -0.20524 211 ft 22 kts 281°
2026-05-07 22:52 51.14821 -0.20638 212 ft 11 kts 343°
2026-05-07 22:53 51.14874 -0.20574 205 ft 10 kts 64°
2026-05-07 22:53 51.14890 -0.20468 209 ft 10 kts 78°
2026-05-07 22:53 51.14904 -0.20363 209 ft 10 kts 77°
2026-05-07 22:53 51.14919 -0.20262 210 ft 9 kts 77°
2026-05-07 22:54 51.14937 -0.20128 208 ft 20 kts 78°
2026-05-07 22:54 51.14976 -0.19845 217 ft 28 kts 78°
2026-05-07 22:54 51.15017 -0.19535 216 ft 29 kts 77°
2026-05-07 22:54 51.15023 -0.19491 209 ft 29 kts 77°
2026-05-07 22:55 51.15056 -0.19261 212 ft 30 kts 77°
2026-05-07 22:55 51.15065 -0.19203 206 ft 30 kts 77°
2026-05-07 22:55 51.15111 -0.18856 205 ft 32 kts 78°
2026-05-07 22:56 51.15161 -0.18510 214 ft 32 kts 78°
2026-05-07 22:56 51.15198 -0.18183 207 ft 13 kts 78°
2026-05-07 22:56 51.15221 -0.18104 212 ft 7 kts 34°
2026-05-07 22:56 51.15267 -0.18106 205 ft 6 kts 351°
2026-05-07 22:57 51.15307 -0.18118 212 ft 5 kts 349°
2026-05-07 22:57 51.15364 -0.18140 212 ft 18 kts 346°
2026-05-07 22:57 51.15546 -0.18207 214 ft 29 kts 348°
2026-05-07 22:57 51.15658 -0.18198 203 ft 13 kts 63°
2026-05-07 22:58 51.15686 -0.18049 196 ft 15 kts 78°
2026-05-07 22:58 51.15708 -0.17871 201 ft 18 kts 77°
2026-05-07 22:58 51.15738 -0.17666 204 ft 20 kts 78°
2026-05-07 22:58 51.15738 -0.17637 198 ft 2 kts 124°
2026-05-07 22:59 51.15693 -0.17619 200 ft 7 kts 170°